Location: Unspecified
(47.9110°N, 14.3980°E)
Time: 05:50:21
(UTC+00:00)

NOSS 3-2 (A) - Pass Details

Date: 06 August 2020
Orbit: 795 x 1413 km, 63.4° (Epoch: 19 September)

Event Time Altitude Azimuth Distance (km) Brightness Sun altitude
Exits shadow 21:10:23 27° 196° (SSW) 1,621 4.3 -20.5°
Maximum altitude 21:13:34 64° 124° (SE) 1,012 3.3 -20.8°
Drops below altitude 10° 21:19:59 10° 45° (NE) 2,812 6.1 -21.3°
Sets 21:22:49 0° 42° (NE) 3,866 6.9 -21.5°
